This is the latest recevied weather packets stored in our database for station/object IZ1MEU-13. If no packets are shown the sender has not sent any weather packets the latest 10 day(s).
| Time | Temp. | Humidity | Pressure | Rain* | Wind** | Luminosity | Snow |
|---|---|---|---|---|---|---|---|
| 1778121578 | 11.11° C | 65% | 1013.9 hPa | - | - | - | - |
| 1778120374 | 11.11° C | 65% | 1013.9 hPa | - | - | - | - |
| 1778119169 | 11.11° C | 65% | 1013.9 hPa | - | - | - | - |
| 1778117965 | 11.67° C | 65% | 1013.5 hPa | - | - | - | - |
| 1778116761 | 11.67° C | 65% | 1013.4 hPa | - | - | - | - |
| 1778115556 | 11.11° C | 65% | 1013.3 hPa | - | - | - | - |
| 1778114352 | 11.67° C | 65% | 1013.3 hPa | - | - | - | - |
| 1778113147 | 11.67° C | 65% | 1013.4 hPa | - | - | - | - |
| 1778111943 | 11.67° C | 66% | 1013.4 hPa | - | - | - | - |
| 1778111322 | 11.67° C | 65% | 1013.5 hPa | - | - | - | - |
| 1778110118 | 11.67° C | 65% | 1013.3 hPa | - | - | - | - |
| 1778108914 | 11.67° C | 65% | 1013 hPa | - | - | - | - |
| 1778107709 | 11.67° C | 64% | 1012.7 hPa | - | - | - | - |
| 1778106505 | 11.67° C | 64% | 1012.7 hPa | - | - | - | - |
| 1778105300 | 11.67° C | 66% | 1012.8 hPa | - | - | - | - |
| 1778104096 | 11.67° C | 66% | 1012.6 hPa | - | - | - | - |
| 1778102891 | 11.67° C | 66% | 1012.4 hPa | - | - | - | - |
| 1778101687 | 11.67° C | 67% | 1012.3 hPa | - | - | - | - |
| 1778100483 | 11.67° C | 68% | 1012.4 hPa | - | - | - | - |
| 1778099278 | 11.11° C | 70% | 1011.5 hPa | - | - | - | - |
| 1778098074 | 11.11° C | 70% | 1011 hPa | - | - | - | - |
| 1778096870 | 11.11° C | 69% | 1010.8 hPa | - | - | - | - |
| 1778095665 | 11.11° C | 68% | 1010.3 hPa | - | - | - | - |
| 1778094461 | 11.67° C | 66% | 1010.1 hPa | - | - | - | - |
| 1778093257 | 13.33° C | 61% | 1010.3 hPa | - | - | - | - |
* Rain since midnight (hover to see other rain measurements)
** Current wind speed in m/s (hover to see current wind gust speed)